Regional Weather Roundup
Issued by NWS Green Bay, WI

Home | Current Version | Previous Version | Graphics & Text | Print | Product List | Glossary Off
Versions: 1 2 3 4 5 6 7 8 9 10 11 12 13 14 15 16 17 18 19 20 21 22 23 24 25 26 27 28 29 30 31 32 33 34 35 36 37 38 39 40 41 42 43 44 45 46 47 48 49 50

000
ASUS43 KGRB 251811
RWRGRB

NORTH-CENTRAL AND NORTHEAST WISCONSIN REGIONAL WEATHER ROUNDUP
NATIONAL WEATHER SERVICE GREEN BAY WI
100 PM CDT MON MAY 25 2015

WIZ005-009-010>012-018-019-251900-
NORTH CENTRAL WISCONSIN

CITY           SKY/WX    TMP DP  RH WIND       PRES   REMARKS
IRONWOOD       CLOUDY    61  61 100 W7        29.63S
MANITOWISH WTR DRIZZLE   62  62 100 SW7       29.68S
ARBOR VITAE    CLOUDY    63  62  95 SW9       29.69R
EAGLE RIVER    CLOUDY    60  60  99 S3        29.69S
LAND O LAKES   LGT RAIN  60  59  97 S6        29.70S
RHINELANDER    CLOUDY    64  61  90 SW13G21   29.71S
PHILLIPS       CLOUDY    61  60  96 SW9       29.69S
ANTIGO         CLOUDY    63  63  99 W14       29.71F FOG
TOMAHAWK       CLOUDY    65  61  88 SW7       29.71R
MERRILL        CLOUDY    67  64  89 SW12      29.71S
$$

WIZ013-073-251900-
NORTHEAST WISCONSIN

CITY           SKY/WX    TMP DP  RH WIND       PRES   REMARKS
IRON MOUNTAIN  LGT RAIN  59  57  93 SE3       29.69S
MARINETTE      CLOUDY    64  63  94 SW13      29.68S
OCONTO         CLOUDY    70  66  87 W15G23    29.71R
$$

WIZ017-030-035>037-045-251900-
CENTRAL WISCONSIN

CITY           SKY/WX    TMP DP  RH WIND       PRES   REMARKS
MEDFORD        CLOUDY    65  61  85 SW10G16   29.71S
WAUSAU         CLOUDY    68  62  81 W15G21    29.70S
MOSINEE        CLOUDY    70  64  83 SW14      29.72
MARSHFIELD     CLOUDY    68  60  75 SW16G28   29.73R
WISC RAPIDS    CLOUDY    70  61  73 W13       29.75S
STEVENS POINT  CLOUDY    68  61  76 SW16G22   29.72F
WAUPACA        PTSUNNY   73  65  76 SW13G18   29.73F
SHAWANO        CLOUDY    68  67  95 SW8       29.71F
CLINTONVILLE   CLOUDY    70  64  83 W14       29.72S
$$

WIZ038-039-048-051-251900-
FOX VALLEY

CITY           SKY/WX    TMP DP  RH WIND       PRES   REMARKS
NWS GREEN BAY  PTSUNNY   72  66  81 SW12G23   29.73S
APPLETON       PTSUNNY   72  64  78 SW22G31   29.75S
OSHKOSH        PTSUNNY   72  62  71 SW13G21   29.74F
FOND DU LAC    LGT RAIN  69  64  84 SW12      29.77R
$$

WIZ022-050-052-251900-
EAST CENTRAL WISCONSIN

CITY           SKY/WX    TMP DP  RH WIND       PRES   REMARKS
STURGEON BAY   CLOUDY    64  59  82 S10       29.74R
MANITOWOC      CLOUDY    73  65  75 SW10      29.76R
SHEBOYGAN      PTSUNNY   74  63  68 SW21G29   29.77S
$$

LMZ563-521-522-541>543-251900-
LAKESHORE

STATION/POSITION TIME  TEMP    WIND        PRES    VSBY  WAVE
                       AIR SEA DIR/SP/G                  HT/PER
                 (UTC) (F)     (DEG/KT/KT) (MB)    (MI)  (FT/S)
SHEBOYGAN LKSHOR 1800   53     170/ 17/ 19 1008.5R
KEWAUNEE LKSHORE 1700   49     180/ 17/ 19 1006.2F
NORTHPORT PIER   1700   53     160/  8/ 16 1006.4F
N MID LAKE BUOY  1750   46 37  190/ 19/ 21 1006.2F         2/ 4
STURGEON BAY CG  1750   48     200/ 19     1008.4    5/8   3
CHAMBERS ISLAND  1700   60     150/  7/ 16 1005.8F
MENOMINEE LKSHOR 1700   58     170/  9/ 12 1006.1F
$$


USA.gov is the U.S. government's official web portal to all federal, state and local government web resources and services.